Location: Ash Swamp
(41.5170°N, 74.6157°W)
Time: 17:08:15
(UTC+00:00)

Sich 1 - Pass Details

Date: 14 July 2020
Orbit: 595 x 624 km, 82.5° (Epoch: 04 August)

Event Time Altitude Azimuth Distance (km) Brightness Sun altitude
Exits shadow 04:24:24 33° 62° (ENE) 1,040 4.3 -26.2°
Drops below altitude 10° 04:27:28 10° 25° (NNE) 1,974 6.3 -26.3°
Sets 04:29:49 0° 17° (NNE) 2,889 7.5 -26.4°
